Regional Weather Roundup
Issued by NWS Grand Forks, ND

Home | Current Version | Previous Version | Graphics & Text | Print | Product List | Glossary On
Versions: 1 2 3 4 5 6 7 8 9 10 11 12 13 14 15 16 17 18 19 20 21 22 23 24 25 26 27 28 29 30 31 32 33 34 35 36 37 38 39 40 41 42 43 44 45 46 47 48 49 50
000
ASUS43 KFGF 241610
RWRFGF
PRAIRIE TO PINES  WEATHER ROUNDUP
NATIONAL WEATHER SERVICE EASTERN NORTH DAKOTA/GRAND FORKS ND
1100 AM CDT SUN JUL 24 2016

 **SATELLITE DATA USED TO AUGMENT SKY COVER AT AUTOMATED STATIONS**
 *****  WEATHER ACROSS EASTERN NORTH DAKOTA  *****

CITY           SKY/WX    TMP DP  RH WIND       PRES   REMARKS
GRAND FORKS    MOSUNNY   75  64  68 W13       29.85R
GRAND FRKS AFB SUNNY     75  63  66 W12G21    29.87R
GRAND FRKS NWS   N/A     75 N/A N/A W14         N/A
DEVILS LAKE    SUNNY     71  61  70 W17G24    29.94R
FARGO          MOSUNNY   76  63  64 W14       29.91R
WAHPETON ARPT  CLOUDY    73  61  64 W14       29.94S
$$

 ***** WEATHER ACROSS CENTRAL AND WESTERN NORTH DAKOTA  *****

CITY           SKY/WX    TMP DP  RH WIND       PRES   REMARKS
BISMARCK       SUNNY     76  58  53 W8        30.05R
MINOT          SUNNY     77  55  46 W15       29.99R
JAMESTOWN      SUNNY     74  59  59 NW15      29.97S
MINOT AFB      SUNNY     72  57  57 NW15G21   29.97R
GARRISON         N/A     73  58  59 NW10      30.03R
WILLISTON      SUNNY     76  53  44 NW13      30.06R
DICKINSON      SUNNY     74  52  46 NW12      30.08S
HETTINGER      MOSUNNY   76  50  40 VRB5      30.12S
$$

 *****  OTHER AIRPORT OBSERVATIONS IN OUR AREA  *****

CITY           SKY/WX    TMP DP  RH WIND       PRES   REMARKS
WALHALLA       NOT AVBL
GRAFTON AIRPOR FAIR      75  64  69 W17       29.86R
VALLEY CITY AR FAIR      73  61  64 W16G22    29.97S
CANDO          NOT AVBL
CAVALIER APRT  FAIR      73  63  68 W15G22    29.83S
GWINNER        FAIR      75  63  64 W15G22    29.97S
SHEYENNE NWR     N/A     77  62  59 W14       29.95S
ROLLA            N/A     70  57  64 NW16      29.93R
 ***** THE ABOVE OBSERVATIONS ARE NON NWS ARE NOT QUALITY
       CONTROLLED AND MAY MIS-REPORT RAIN FOR SNOW...
$$

  *****  WEATHER ACROSS NORTHERN MINNESOTA  *****

CITY           SKY/WX    TMP DP  RH WIND       PRES   REMARKS
FLAG ISLAND    MOSUNNY   70  61  73 W17       29.75S
WARROAD        MOSUNNY   70  64  83 W15       29.79S
ROSEAU         SUNNY     72  64  78 W13G18    29.80S
HALLOCK        SUNNY     73  63  68 W13G18    29.81S
THF RVR FALLS  SUNNY     71  62  73 W14       29.87R
BAUDETTE       MOSUNNY   72  61  68 W13G18    29.78S
WASKISH        MOSUNNY   72  63  73 W14       29.82R
CROOKSTON      MOSUNNY   73  64  73 NW13G18   29.87R
STEPHEN NDAWN    N/A     73  63  68 W13         N/A
GREENBUSH NDAW   N/A     73  64  73 W10         N/A
$$
  *****  WEATHER ACROSS CENTRAL AND WEST MINNESOTA  *****

CITY           SKY/WX    TMP DP  RH WIND       PRES   REMARKS
FOSSTON        SUNNY     70  61  73 W12       29.89R
BEMIDJI        SUNNY     72  61  68 W16       29.87R
PARK RAPIDS    MOSUNNY   73  61  65 W17       29.89R
ELBOW LAKE     FAIR      69  62  78 NW8       29.96R
WADENA         NOT AVBL
DETROIT LAKES  MOSUNNY   72  61  68 NW14      29.93S
MOORHEAD       MOSUNNY   73  63  68 W9        29.92S
FERGUS FALLS   CLOUDY    72  63  73 NW14      29.95R
MORRIS MN      CLOUDY    73  63  68 NW10        N/A
STAPLES        CLOUDY    72  61  68 W13       29.90R
$$
  *****  WEATHER ELSEWHERE ACROSS MINNESOTA  *****

CITY           SKY/WX    TMP DP  RH WIND       PRES   REMARKS
DULUTH         MOSUNNY   77  65  66 W13       29.80S
INTRNTL FALLS  PTSUNNY   70  61  73 W15G21    29.77R
ELY            MOSUNNY   73  61  64 W13G18    29.76R
CLOQUET          N/A     75  61  60 W13       29.81S
WHEATON        CLOUDY    75  64  69 NW15      29.96F
BRAINERD       MOSUNNY   73  62  68 NW14G23   29.88R
HIBBING        MOSUNNY   73  61  65 W9        29.80S
ALEXANDRIA     PTSUNNY   71  61  70 W15G22    29.96R
SAINT CLOUD    MOSUNNY   75  64  68 W15       29.89R
MINNEAPOLIS    MOSUNNY   81  64  56 W15       29.88R
$$

  *****  WEATHER ACROSS SOUTH DAKOTA  *****

CITY           SKY/WX    TMP DP  RH WIND       PRES   REMARKS
SIOUX FALLS    PTSUNNY   76  61  59 N13       30.00S
BROOKINGS      CLOUDY    74  61  63 N13       30.00S
WATERTOWN      CLOUDY    74  60  61 N15       29.99F
HURON          CLOUDY    75  60  59 N8        30.02R
SISSETON         N/A     75  62  64 NW10      29.95F
ABERDEEN       CLOUDY    75  60  59 NW13      30.01S
MITCHELL       CLOUDY    75  61  61 N8        30.04R
PIERRE         MOSUNNY   72  58  61 NW8       30.05R
MOBRIDGE       CLOUDY    73  59  61 N12       30.01F
RAPID CITY     PTSUNNY   75  53  46 SW8       30.16S
$$

  *****  SOME WEATHER IN NEARBY STATES *****

CITY           SKY/WX    TMP DP  RH WIND       PRES   REMARKS
GLASGOW MT     SUNNY     73  54  51 SE6       30.05S
GREAT FALLS MT SUNNY     71  40  32 SW12      30.13S
CHEYENNE WY    CLOUDY    75  52  44 VRB3      30.24R
SCOTTSBLUFF NE MOSUNNY   77  54  44 E15       30.16R
OMAHA NE       PTSUNNY   86  65  49 N14       29.97R
DES MOINES IA  MOSUNNY   87  74  64 N12       29.89S HX  95
DAVENPORT IA   CLOUDY    87  78  74 SW10      29.87R HX 100
CHICAGO IL     PTSUNNY   84  76  76 SW14G23   29.89F HX  93
EAU CLAIRE WI  MOSUNNY   80  72  76 W10       29.82R
LA CROSSE WI   MOSUNNY   85  74  69 N10       29.82R HX  92
$$

  *****  SOME NATIONAL WEATHER *****

CITY           SKY/WX    TMP DP  RH WIND       PRES   REMARKS
LA GUARDIA NY  PTSUNNY   89  60  37 VRB3      29.96F
RALEIGH NC     PTSUNNY   91  74  57 VRB5      30.04S HX 100
ATLANTA GA     PTSUNNY   90  70  51 CALM      30.08S HX  95
NEW ORLEANS LA CLOUDY    88  77  69 VRB3      30.00R HX 100
OKLAHOMA CITY  MOSUNNY   91  69  48 S15       29.98F HX  96
ALBUQUERQUE NM MOSUNNY   84  51  31 N7        30.18S
SALT LAKE CITY MOSUNNY   80  37  21 CALM      30.12S
LOS ANGELES CA MOSUNNY   75  66  73 S7        29.89R
BOISE ID       SUNNY     69  42  37 VRB5      30.10R
SEATTLE WA     SUNNY     65  55  70 VRB7      30.14F
$$

*** WEATHER ACROSS MANITOBA...SASKATCHEWAN AND ONTARIO ***
                ***ONTARIO***

CITY           SKY/WX    TMP DP  RH WIND       PRES   REMARKS
GERALDTON      LGT RAIN  66  66 100 N9        29.72R
THUNDER BAY    CLOUDY    70  66  88 CALM      29.70S
SIOUX LOOKOUT  PTSUNNY   73  64  73 W10       29.65R
TORONTO        PTSUNNY   79  64  61 E9        29.99F
BIG TROUT LK   LGT RAIN  63  61  94 SE9       29.56S
PICKLE LAKE    LGT RAIN  64  63  94 S10       29.61S
DRYDEN         PTSUNNY   72  61  68 W21G28    29.70R
KENORA         PTSUNNY   68  59  73 W10G23    29.74S
$$
                *** MANITOBA***

CITY           SKY/WX    TMP DP  RH WIND       PRES   REMARKS
BRANDON        MOSUNNY   72  61  68 W18G24    29.87R
DAUPHIN        PTSUNNY   70  63  78 W14G20    29.83R
ISLAND LAKE    LGT RAIN  61  61 100 N9G17     29.60R
PILOT MOUND      N/A     70  59  68 W12G18      N/A
THE PAS        PTSUNNY   68  59  73 N9        29.81R
THOMPSON       NOT AVBL
WINNIPEG       MOSUNNY   72  63  73 W18G24    29.79R
LYNN LAKE      SUNNY     68  57  68 MISG      29.80S
CHURCHILL      MOSUNNY   55  52  88 NE12G18   29.80S
GILLAM         CLOUDY    59  57  94 N16       29.72R
$$
                ***SASKATCHEWAN***

CITY           SKY/WX    TMP DP  RH WIND       PRES   REMARKS
ESTEVAN        MOSUNNY   70  55  60 NW15G21   30.01R
KINDERSLEY     MOSUNNY   70  55  60 S3        30.01S
LLOYDMINSTER   MOSUNNY   70  55  60 W10       29.95S
PRINCE ALBERT  MOSUNNY   72  57  60 NW7       29.90F
REGINA         MOSUNNY   70  55  60 W16       30.01F
YORKTON        SUNNY     70  59  68 W17       29.90R
N. BATTLEFORD  SUNNY     68  52  56 W6        29.98S
LA RONGE       MOSUNNY   70  59  68 W9        29.83F
SASKATOON      MOSUNNY   68  54  60 W8        29.99R
SWIFT CURRENT  SUNNY     68  55  64 VRB3      30.03S
$$
NOTE: THESE ARE AUTOMATED STATIONS WITH LIMITED QUALITY CONTROL
      "FAIR" INDICATES FEW OR NO CLOUDS BELOW 12,000 FEET WITH NO
      SIGNIFICANT WEATHER AND/OR OBSTRUCTIONS TO VISIBILITY.
      SKY/WX - SKY CONDITION AND SIGNIFICANT WEATHER.
      TMP - AIR TEMPERATURE.    DP   - DEWPOINT TEMPERATURE.
      RH  - RELATIVE HUMIDITY.  PRES - PRESSURE.
      HX  - HEAT INDEX.         WCI  - WIND CHILL INDEX.
$



USA.gov is the U.S. government's official web portal to all federal, state and local government web resources and services.